User: anonymous   Login
Location: Unspecified
(0.0000°N, 0.0000°E)
Time: 18:11:08
(UTC+00:00)
Language:

Aussat K2 - Orbit

View from above orbital plane
View from above orbital plane
View from above satellite
View from above satellite

Ground track
Ground track

The orbit data is extracted from the following two-line orbital elements,

1 16275U 85109C   17018.54310594 +.00000000 +00000-0 +00000-0 0  9992
2 16275 015.1717 010.1203 0008129 247.9481 241.2970 00.99952526012181
Epoch (UTC): 18 January 2017 13:02:04
Eccentricity: 0.0008129
inclination: 15.1717°
perigee height: 35841 km
apogee height: 35910 km
right ascension of ascending node: 10.1203°
argument of perigee: 247.9481°
revolutions per day: 0.99952526
mean anomaly at epoch: 241.2970°
orbit number at epoch: 1218

The dashed part of the orbit path shows where the satellite is in the earth's shadow,  

DLR